Location: Aigremont
(47.7188°N, 3.8925°E)
Time: 10:04:47
(UTC+00:00)

Cosmos 2237 Rocket - Pass Details

Date: 18 February 2020
Orbit: 835 x 849 km, 71.0° (Epoch: 30 March)

Event Time Altitude Azimuth Distance (km) Brightness Sun altitude
Exits shadow 03:49:15 37° 359° (N) 1,282 3.2 -30.2°
Drops below altitude 10° 03:52:49 10° 21° (NNE) 2,458 5.0 -29.7°
Sets 03:55:20 0° 26° (NNE) 3,396 5.9 -29.3°
